When you browse on this site, cookies collect data to enhance your experience and personalize the content and advertising you see.
Visit our Privacy Policy to learn more. By continuing to use the site, you agree to this use of cookies and data.
  • Em Portugal
  • Lista de países
  • Para 7 dias
  • Temperatura da água
  • Mapa do tempo
  • Widgets de tempo
  • user-avatar
    Iniciar Sessão

    Previsão horária em Yulara

    Hoje, 1 Junho, Segunda-feira

    Tempo Temperatura Precipitação Vento Pressão Humidade
    00:00 +10°C° 0 mm 6 m/s 722 mmHg 34%
    01:00 +10°C° 0 mm 5 m/s 722 mmHg 38%
    02:00 +9°C° 0 mm 5 m/s 722 mmHg 41%
    03:00 +8°C° 0 mm 5 m/s 722 mmHg 45%
    04:00 +7°C° 0 mm 4 m/s 722 mmHg 51%
    05:00 +8°C° 0 mm 3 m/s 722 mmHg 57%
    06:00 +7°C° 0 mm 2 m/s 722 mmHg 63%
    07:00 +9°C° 0 mm 3 m/s 723 mmHg 58%
    08:00 +11°C° 0 mm 3 m/s 724 mmHg 52%
    09:00 +14°C° 0 mm 4 m/s 724 mmHg 46%
    10:00 +15°C° 0 mm 4 m/s 724 mmHg 42%
    11:00 +18°C° 0 mm 4 m/s 724 mmHg 38%
    12:00 +20°C° 0 mm 4 m/s 723 mmHg 34%
    13:00 +21°C° 0 mm 4 m/s 723 mmHg 32%
    14:00 +21°C° 0 mm 4 m/s 722 mmHg 29%
    15:00 +22°C° 0 mm 4 m/s 721 mmHg 27%
    16:00 +20°C° 0 mm 4 m/s 722 mmHg 31%
    17:00 +18°C° 0 mm 4 m/s 722 mmHg 35%
    18:00 +17°C° 0 mm 4 m/s 722 mmHg 39%
    19:00 +15°C° 0 mm 4 m/s 723 mmHg 44%
    20:00 +14°C° 0 mm 4 m/s 723 mmHg 50%
    21:00 +13°C° 0 mm 5 m/s 724 mmHg 55%
    22:00 +12°C° 0 mm 5 m/s 724 mmHg 62%
    23:00 +10°C° 0 mm 5 m/s 724 mmHg 69%

    Amanhã, 2 Junho, Terça-feira

    Tempo Temperatura Precipitação Vento Pressão Humidade
    00:00 +9°C° 0 mm 5 m/s 724 mmHg 75%
    01:00 +8°C° 0 mm 5 m/s 724 mmHg 79%
    02:00 +8°C° 0 mm 4 m/s 724 mmHg 83%
    03:00 +7°C° 0 mm 4 m/s 723 mmHg 87%
    04:00 +7°C° 0 mm 4 m/s 724 mmHg 87%
    05:00 +6°C° 0 mm 4 m/s 724 mmHg 88%
    06:00 +7°C° 0 mm 3 m/s 725 mmHg 89%
    07:00 +8°C° 0 mm 4 m/s 725 mmHg 82%
    08:00 +9°C° 0 mm 5 m/s 725 mmHg 74%
    09:00 +11°C° 0 mm 6 m/s 726 mmHg 66%
    10:00 +13°C° 0 mm 6 m/s 725 mmHg 58%
    11:00 +15°C° 0 mm 6 m/s 725 mmHg 50%
    12:00 +17°C° 0 mm 6 m/s 725 mmHg 42%
    13:00 +19°C° 0 mm 6 m/s 724 mmHg 39%
    14:00 +20°C° 0 mm 6 m/s 724 mmHg 35%
    15:00 +21°C° 0 mm 5 m/s 723 mmHg 32%
    16:00 +19°C° 0 mm 5 m/s 724 mmHg 37%
    17:00 +17°C° 0 mm 4 m/s 724 mmHg 41%
    18:00 +14°C° 0 mm 3 m/s 724 mmHg 45%
    19:00 +13°C° 0 mm 4 m/s 724 mmHg 48%
    20:00 +13°C° 0 mm 4 m/s 725 mmHg 50%
    21:00 +12°C° 0 mm 4 m/s 725 mmHg 52%
    22:00 +11°C° 0 mm 4 m/s 725 mmHg 56%
    23:00 +10°C° 0 mm 4 m/s 725 mmHg 60%

    Depois de amanhã, 3 Junho, Quarta-feira

    Tempo Temperatura Precipitação Vento Pressão Humidade
    00:00 +8°C° 0 mm 4 m/s 725 mmHg 63%
    01:00 +7°C° 0 mm 4 m/s 725 mmHg 67%
    02:00 +7°C° 0 mm 4 m/s 725 mmHg 70%
    03:00 +6°C° 0 mm 4 m/s 725 mmHg 73%
    04:00 +6°C° 0 mm 4 m/s 725 mmHg 74%
    05:00 +6°C° 0 mm 4 m/s 725 mmHg 75%
    06:00 +5°C° 0 mm 4 m/s 725 mmHg 75%
    07:00 +7°C° 0 mm 5 m/s 726 mmHg 68%
    08:00 +9°C° 0 mm 6 m/s 726 mmHg 61%
    09:00 +10°C° 0 mm 7 m/s 727 mmHg 55%
    10:00 +12°C° 0 mm 7 m/s 726 mmHg 49%
    11:00 +15°C° 0 mm 7 m/s 726 mmHg 42%
    12:00 +16°C° 0 mm 7 m/s 726 mmHg 36%
    13:00 +17°C° 0 mm 7 m/s 725 mmHg 34%
    14:00 +18°C° 0 mm 7 m/s 725 mmHg 32%
    15:00 +20°C° 0 mm 6 m/s 724 mmHg 30%
    16:00 +17°C° 0 mm 5 m/s 724 mmHg 34%
    17:00 +15°C° 0 mm 4 m/s 724 mmHg 39%
    18:00 +13°C° 0 mm 4 m/s 724 mmHg 43%
    19:00 +12°C° 0 mm 4 m/s 724 mmHg 47%
    20:00 +11°C° 0 mm 4 m/s 725 mmHg 50%
    21:00 +10°C° 0 mm 4 m/s 725 mmHg 53%
    22:00 +10°C° 0 mm 4 m/s 725 mmHg 57%
    23:00 +8°C° 0 mm 4 m/s 725 mmHg 62%

    4 Junho, Quinta-feira

    Tempo Temperatura Precipitação Vento Pressão Humidade
    00:00 +8°C° 0 mm 4 m/s 725 mmHg 66%
    01:00 +7°C° 0 mm 4 m/s 725 mmHg 68%
    02:00 +7°C° 0 mm 4 m/s 725 mmHg 71%
    03:00 +6°C° 0 mm 4 m/s 725 mmHg 74%
    04:00 +6°C° 0 mm 4 m/s 725 mmHg 76%
    05:00 +5°C° 0 mm 4 m/s 725 mmHg 78%
    06:00 +5°C° 0 mm 4 m/s 725 mmHg 80%
    07:00 +6°C° 0 mm 5 m/s 725 mmHg 72%
    08:00 +8°C° 0 mm 6 m/s 726 mmHg 63%
    09:00 +10°C° 0 mm 7 m/s 726 mmHg 54%
    10:00 +12°C° 0 mm 7 m/s 726 mmHg 47%
    11:00 +15°C° 0 mm 7 m/s 725 mmHg 40%
    12:00 +17°C° 0 mm 7 m/s 725 mmHg 33%
    13:00 +18°C° 0 mm 7 m/s 724 mmHg 31%
    14:00 +20°C° 0 mm 6 m/s 724 mmHg 28%
    15:00 +21°C° 0 mm 6 m/s 723 mmHg 26%
    16:00 +19°C° 0 mm 5 m/s 723 mmHg 30%
    17:00 +17°C° 0 mm 4 m/s 723 mmHg 35%
    18:00 +14°C° 0 mm 4 m/s 723 mmHg 40%
    19:00 +13°C° 0 mm 4 m/s 723 mmHg 44%
    20:00 +11°C° 0 mm 4 m/s 724 mmHg 48%
    21:00 +10°C° 0 mm 4 m/s 724 mmHg 51%
    22:00 +10°C° 0 mm 4 m/s 724 mmHg 55%
    23:00 +8°C° 0 mm 4 m/s 724 mmHg 59%

    5 Junho, Sexta-feira

    Tempo Temperatura Precipitação Vento Pressão Humidade
    00:00 +7°C° 0 mm 4 m/s 724 mmHg 62%
    01:00 +7°C° 0 mm 4 m/s 724 mmHg 66%
    02:00 +6°C° 0 mm 4 m/s 723 mmHg 70%
    03:00 +6°C° 0 mm 4 m/s 723 mmHg 74%
    04:00 +5°C° 0 mm 3 m/s 723 mmHg 77%
    05:00 +5°C° 0 mm 3 m/s 723 mmHg 79%
    06:00 +4°C° 0 mm 3 m/s 724 mmHg 82%
    07:00 +6°C° 0 mm 4 m/s 724 mmHg 73%
    08:00 +8°C° 0 mm 4 m/s 724 mmHg 64%
    09:00 +11°C° 0 mm 4 m/s 725 mmHg 55%
    10:00 +13°C° 0 mm 4 m/s 724 mmHg 47%
    11:00 +15°C° 0 mm 4 m/s 724 mmHg 38%
    12:00 +18°C° 0 mm 4 m/s 723 mmHg 30%
    13:00 +19°C° 0 mm 4 m/s 723 mmHg 27%
    14:00 +20°C° 0 mm 4 m/s 722 mmHg 24%
    15:00 +21°C° 0 mm 4 m/s 722 mmHg 20%
    16:00 +19°C° 0 mm 3 m/s 722 mmHg 25%
    17:00 +16°C° 0 mm 3 m/s 722 mmHg 29%
    18:00 +12°C° 0 mm 3 m/s 721 mmHg 33%
    19:00 +12°C° 0 mm 3 m/s 722 mmHg 35%
    20:00 +11°C° 0 mm 3 m/s 722 mmHg 37%
    21:00 +11°C° 0 mm 3 m/s 723 mmHg 39%
    22:00 +10°C° 0 mm 3 m/s 723 mmHg 42%
    23:00 +9°C° 0 mm 3 m/s 723 mmHg 45%

    6 Junho, Sábado

    Tempo Temperatura Precipitação Vento Pressão Humidade
    00:00 +8°C° 0 mm 3 m/s 723 mmHg 48%
    01:00 +7°C° 0 mm 3 m/s 722 mmHg 49%
    02:00 +7°C° 0 mm 3 m/s 722 mmHg 50%
    03:00 +5°C° 0 mm 3 m/s 722 mmHg 52%
    04:00 +5°C° 0 mm 3 m/s 722 mmHg 54%
    05:00 +4°C° 0 mm 3 m/s 722 mmHg 56%
    06:00 +4°C° 0 mm 3 m/s 722 mmHg 58%
    07:00 +7°C° 0 mm 3 m/s 723 mmHg 51%
    08:00 +8°C° 0 mm 4 m/s 723 mmHg 45%
    09:00 +11°C° 0 mm 4 m/s 724 mmHg 39%
    10:00 +14°C° 0 mm 5 m/s 723 mmHg 34%
    11:00 +16°C° 0 mm 5 m/s 723 mmHg 29%
    12:00 +19°C° 0 mm 6 m/s 723 mmHg 24%
    13:00 +20°C° 0 mm 6 m/s 722 mmHg 22%
    14:00 +21°C° 0 mm 6 m/s 722 mmHg 20%
    15:00 +22°C° 0 mm 6 m/s 721 mmHg 18%
    16:00 +20°C° 0 mm 5 m/s 721 mmHg 21%
    17:00 +17°C° 0 mm 5 m/s 722 mmHg 24%
    18:00 +15°C° 0 mm 4 m/s 722 mmHg 27%
    19:00 +13°C° 0 mm 5 m/s 722 mmHg 31%
    20:00 +12°C° 0 mm 5 m/s 722 mmHg 36%
    21:00 +10°C° 0 mm 5 m/s 723 mmHg 40%
    22:00 +9°C° 0 mm 5 m/s 723 mmHg 45%
    23:00 +9°C° 0 mm 5 m/s 723 mmHg 49%
    Mostrar mais